Panakton, Greece

11:46 AM EET on December 10, 2016 (GMT +0200)
Elefsis Air Base

Weather History for LGEL - December, 2013

Change the Weather History Date:

Tuesday, December 17, 2013

  Actual Average Record
Temperature  
Mean Temperature 48 °F -  
Max Temperature 51 °F 54 °F 69 °F (2011)
Min Temperature 44 °F 41 °F 33 °F (2003)
Degree Days  
Heating Degree Days 16    
Moisture  
Dew Point 37 °F    
Average Humidity 65    
Maximum Humidity 76    
Minimum Humidity 54    
Precipitation  
Precipitation 0.00 in - - ()
Sea Level Pressure  
Sea Level Pressure 30.42 in    
Wind  
Wind Speed 7 mph ()    
Max Wind Speed 12 mph    
Max Gust Speed -    
Visibility 6.2 miles    
Events      
Averages and records for this station are not official NWS values.
T = Trace of Precipitation, MM = Missing Value Source: Averaged Metar Reports

Daily Weather History Graph

Daily Weather History Graph

Search for Another Location

Airport or City:

Trip Planner

Search our weather history database for the weather conditions in past years. The results will help you decide how hot, cold, wet, or windy it might be!

Date:

Astronomy

Dec. 17, 2013 Rise Set
Actual Time 7:36 AM EET 5:07 PM EET
Civil Twilight 7:06 AM EET 5:37 PM EET
Nautical Twilight 6:33 AM EET 6:10 PM EET
Astronomical Twilight 6:01 AM EET 6:42 PM EET
Moon 5:30 PM EET (12/17) 7:18 AM EET (12/17)
Length of Visible Light 10h 30m
Length of Day
9h 31m
Full, 100% of the Moon is Illuminated
Dec 17
Full
Dec 25
Last Quarter
Jan 1
New
Jan 8
First Quarter
Jan 16
Full

Hourly Weather History & Observations

Time (EET) Temp. Windchill Dew Point Humidity Pressure Visibility Wind Dir Wind Speed Gust Speed Precip Events Conditions
12:50 AM 51.8 °F - 37.4 °F 58% 30.42 in 6.2 mi North 6.9 mph - N/A   Scattered Clouds
1:50 AM 50.0 °F - 35.6 °F 58% 30.42 in 6.2 mi NNW 8.1 mph - N/A   Scattered Clouds
2:50 AM 50.0 °F - 39.2 °F 66% 30.42 in 6.2 mi Calm Calm - N/A   Scattered Clouds
3:50 AM 50.0 °F - 37.4 °F 62% 30.42 in 6.2 mi North 9.2 mph - N/A   Scattered Clouds
4:50 AM 50.0 °F - 35.6 °F 58% 30.42 in 6.2 mi NNW 6.9 mph - N/A   Scattered Clouds
5:20 AM 50.0 °F - 35.6 °F 58% 30.42 in 6.2 mi North 5.8 mph - N/A   Scattered Clouds
5:50 AM 50.0 °F - 35.6 °F 58% 30.42 in 6.2 mi NNW 5.8 mph - N/A   Scattered Clouds
6:20 AM 48.2 °F - 35.6 °F 62% 30.42 in 6.2 mi NNW 6.9 mph - N/A   Scattered Clouds
6:50 AM 48.2 °F - 33.8 °F 58% 30.45 in 6.2 mi North 8.1 mph - N/A   Scattered Clouds
7:20 AM 48.2 °F - 33.8 °F 58% 30.45 in 6.2 mi North 5.8 mph - N/A   Scattered Clouds
7:50 AM 50.0 °F - 33.8 °F 54% 30.45 in 6.2 mi NNW 4.6 mph - N/A   Mostly Cloudy
8:20 AM 48.2 °F - 33.8 °F 58% 30.45 in 6.2 mi NNE 4.6 mph - N/A   Mostly Cloudy
8:50 AM 50.0 °F - 33.8 °F 54% 30.45 in 6.2 mi North 6.9 mph - N/A   Mostly Cloudy
9:20 AM 50.0 °F - 35.6 °F 58% 30.45 in 6.2 mi North 11.5 mph - N/A   Mostly Cloudy
9:50 AM 48.2 °F - 37.4 °F 66% 30.48 in 6.2 mi North 11.5 mph - N/A   Mostly Cloudy
10:20 AM 48.2 °F - 37.4 °F 66% 30.48 in 6.2 mi North 6.9 mph - N/A   Mostly Cloudy
10:50 AM 48.2 °F - 39.2 °F 71% 30.48 in 6.2 mi North 11.5 mph - N/A   Mostly Cloudy
11:20 AM 48.2 °F - 39.2 °F 71% 30.45 in 6.2 mi North 9.2 mph - N/A   Mostly Cloudy
11:50 AM 50.0 °F - 39.2 °F 66% 30.45 in 6.2 mi North 9.2 mph - N/A   Mostly Cloudy
12:20 PM 50.0 °F - 39.2 °F 66% 30.45 in 6.2 mi North 4.6 mph - N/A   Mostly Cloudy
12:50 PM 50.0 °F - 39.2 °F 66% 30.42 in 6.2 mi North 6.9 mph - N/A   Mostly Cloudy
1:20 PM 50.0 °F - 39.2 °F 66% 30.42 in 6.2 mi North 9.2 mph - N/A   Mostly Cloudy
1:50 PM 50.0 °F - 39.2 °F 66% 30.42 in 6.2 mi North 9.2 mph - N/A   Mostly Cloudy
2:20 PM 50.0 °F - 39.2 °F 66% 30.39 in 6.2 mi NNW 11.5 mph - N/A   Mostly Cloudy
2:50 PM 48.2 °F - 39.2 °F 71% 30.39 in 6.2 mi North 11.5 mph - N/A   Mostly Cloudy
3:20 PM 48.2 °F - 41.0 °F 76% 30.39 in 6.2 mi NNW 11.5 mph - N/A   Mostly Cloudy
3:50 PM 48.2 °F - 39.2 °F 71% 30.39 in 6.2 mi North 11.5 mph - N/A   Mostly Cloudy
4:20 PM 48.2 °F - 39.2 °F 71% 30.39 in 6.2 mi NNW 9.2 mph - N/A   Mostly Cloudy
4:50 PM 48.2 °F - 39.2 °F 71% 30.39 in 6.2 mi NW 5.8 mph - N/A   Mostly Cloudy
5:20 PM 48.2 °F - 39.2 °F 71% 30.39 in 6.2 mi NW 5.8 mph - N/A   Mostly Cloudy
5:50 PM 48.2 °F - 39.2 °F 71% 30.39 in 6.2 mi NW 11.5 mph - N/A   Mostly Cloudy
6:20 PM 48.2 °F - 39.2 °F 71% 30.39 in 6.2 mi NW 11.5 mph - N/A   Mostly Cloudy
6:50 PM 48.2 °F - 37.4 °F 66% 30.42 in 6.2 mi North 9.2 mph - N/A   Mostly Cloudy
7:20 PM 48.2 °F - 37.4 °F 66% 30.42 in 6.2 mi North 9.2 mph - N/A   Mostly Cloudy
7:50 PM 46.4 °F 42.9 °F 37.4 °F 71% 30.42 in 6.2 mi North 6.9 mph - N/A   Mostly Cloudy
8:20 PM 48.2 °F - 37.4 °F 66% 30.42 in 6.2 mi NNW 8.1 mph - N/A   Mostly Cloudy
8:50 PM 48.2 °F - 37.4 °F 66% 30.42 in 6.2 mi North 9.2 mph - N/A   Mostly Cloudy
9:20 PM 48.2 °F - 37.4 °F 66% 30.42 in 6.2 mi North 9.2 mph - N/A   Mostly Cloudy
9:50 PM 46.4 °F 43.5 °F 37.4 °F 71% 30.42 in 6.2 mi North 5.8 mph - N/A   Mostly Cloudy
10:20 PM 48.2 °F - 35.6 °F 62% 30.42 in 6.2 mi North 9.2 mph - N/A   Mostly Cloudy
10:50 PM 46.4 °F 41.9 °F 37.4 °F 71% 30.39 in 6.2 mi North 9.2 mph - N/A   Mostly Cloudy
11:50 PM 44.6 °F 40.7 °F 37.4 °F 76% 30.39 in 6.2 mi NNW 6.9 mph - N/A   Mostly Cloudy